Location: Oshawa
(43.9000°N, 78.8670°W)
Time: 14:43:41
(UTC-04:00)

Iridium 98 - Visible Passes

Search period start: 17 October 2017 00:00
Search period end: 27 October 2017 00:00
Orbit: 776 x 779 km, 86.4° (Epoch: 16 October)

Date Brightness Start Highest point End Pass type
(mag) Time Alt. Az. Time Alt. Az. Time Alt. Az.
23 Oct 8.1 21:09:25 10° N 21:09:25 10° N 21:09:28 10° N visible
25 Oct 8.6 06:56:07 10° NE 06:58:18 12° ENE 07:00:28 10° E visible
25 Oct 8.1 21:42:26 12° NNW 21:42:26 12° NNW 21:42:53 10° N visible
26 Oct 7.7 21:08:36 16° N 21:08:36 16° N 21:09:33 10° N visible
